Ephrata, WA

11:19 PM PDT on April 20, 2018 (GMT -0700)
Ephrata Municipal

Weather History for KEPH - October, 2013

Change the Weather History Date:

Wednesday, October 30, 2013

  Actual Average Record
Temperature  
Mean Temperature 37 °F 44 °F  
Max Temperature 50 °F 54 °F 74 °F (2015)
Min Temperature 24 °F 34 °F 14 °F (2002)
Degree Days  
Heating Degree Days 28 21  
Month to date heating degree days 444 432  
Since 1 July heating degree days 552 559  
Cooling Degree Days 0 0  
Month to date cooling degree days 0 0  
Year to date cooling degree days 1084 769  
Moisture  
Dew Point 23 °F    
Average Humidity 60    
Maximum Humidity 81    
Minimum Humidity 39    
Precipitation  
Precipitation 0.00 in 0.02 in 0.32 in (2001)
Month to date precipitation 0.14 0.50  
Year to date precipitation 5.11 5.52  
Sea Level Pressure  
Sea Level Pressure 30.07 in    
Wind  
Wind Speed 4 mph (NNE)    
Max Wind Speed 8 mph    
Max Gust Speed 10 mph    
Visibility 10 miles    
Events      
T = Trace of Precipitation, MM = Missing Value Source: NWS Daily Summary

Daily Weather History Graph

Daily Weather History Graph

Search for Another Location

Airport or City:

Astronomy

Oct. 30, 2013 Rise Set
Actual Time 7:38 AM PDT 5:43 PM PDT
Civil Twilight 7:07 AM PDT 6:15 PM PDT
Nautical Twilight 6:30 AM PDT 6:51 PM PDT
Astronomical Twilight 5:55 AM PDT 7:27 PM PDT
Moon 3:17 AM PDT (10/30) 3:45 PM PDT (10/30)
Length of Visible Light 11h 08m
Length of Day
10h 04m
Waning Crescent, 16% of the Moon is Illuminated
Oct 30
Waning Crescent
Nov 3
New
Nov 9
First Quarter
Nov 17
Full
Nov 25
Last Quarter

Hourly Weather History & Observations

Time (PDT) Temp. Windchill Dew Point Humidity Pressure Visibility Wind Dir Wind Speed Gust Speed Precip Events Conditions
12:53 AM 30.0 °F 24.1 °F 21.0 °F 69% 30.02 in 10.0 mi North 5.8 mph - N/A   Clear
1:53 AM 27.0 °F 21.6 °F 19.9 °F 75% 30.03 in 10.0 mi North 4.6 mph - N/A   Clear
2:53 AM 27.0 °F 19.5 °F 21.0 °F 78% 30.03 in 10.0 mi NNE 6.9 mph - N/A   Clear
3:53 AM 26.1 °F 19.4 °F 21.0 °F 81% 30.04 in 10.0 mi North 5.8 mph - N/A   Clear
4:53 AM 26.1 °F 19.4 °F 21.0 °F 81% 30.04 in 10.0 mi NNE 5.8 mph - N/A   Clear
5:53 AM 26.1 °F 18.4 °F 19.9 °F 78% 30.06 in 10.0 mi NNE 6.9 mph - N/A   Clear
6:53 AM 25.0 °F 18.1 °F 19.9 °F 81% 30.06 in 10.0 mi NNE 5.8 mph - N/A   Clear
7:53 AM 25.0 °F 17.1 °F 19.9 °F 81% 30.08 in 10.0 mi North 6.9 mph - N/A   Clear
8:53 AM 30.9 °F - 23.0 °F 72% 30.09 in 10.0 mi Calm Calm - N/A   Clear
9:53 AM 34.0 °F 28.8 °F 21.9 °F 61% 30.09 in 10.0 mi NE 5.8 mph - N/A   Clear
10:53 AM 37.9 °F 33.5 °F 23.0 °F 55% 30.09 in 10.0 mi NE 5.8 mph - N/A   Clear
11:53 AM 42.1 °F - 23.0 °F 47% 30.10 in 10.0 mi Calm Calm - N/A   Clear
12:53 PM 43.0 °F 40.3 °F 23.0 °F 45% 30.08 in 10.0 mi East 4.6 mph - N/A   Partly Cloudy
1:53 PM 45.0 °F - 23.0 °F 42% 30.08 in 10.0 mi Calm Calm - N/A   Clear
2:53 PM 46.9 °F - 24.1 °F 41% 30.06 in 10.0 mi Calm Calm - N/A   Clear
3:53 PM 48.9 °F - 24.1 °F 38% 30.06 in 10.0 mi SSE 5.8 mph - N/A   Clear
4:53 PM 48.9 °F - 24.1 °F 38% 30.06 in 10.0 mi South 4.6 mph - N/A   Clear
5:53 PM 43.0 °F - 24.1 °F 47% 30.08 in 10.0 mi Calm Calm - N/A   Clear
6:53 PM 42.1 °F - 25.0 °F 51% 30.09 in 10.0 mi Calm Calm - N/A   Clear
7:53 PM 42.1 °F - 26.1 °F 53% 30.08 in 10.0 mi Calm Calm - N/A   Clear
8:53 PM 39.9 °F 35.8 °F 26.1 °F 58% 30.07 in 10.0 mi North 5.8 mph - N/A   Clear
9:53 PM 37.9 °F 34.4 °F 26.1 °F 62% 30.06 in 10.0 mi North 4.6 mph - N/A   Partly Cloudy
10:53 PM 39.0 °F 36.8 °F 27.0 °F 62% 30.06 in 10.0 mi NNE 3.5 mph - N/A   Mostly Cloudy
11:53 PM 39.0 °F 36.8 °F 28.0 °F 65% 30.05 in 10.0 mi North 3.5 mph - N/A   Mostly Cloudy